CAPE
0 1 2 0 0 0 0 0 0 0 0 0 0 0 0 0 0 0 0 0 0 0 0 0 0 2 0 0 1 0 0 0 0 0 0 0 0 0 0 0 0 0 0 0
0 0 1 0 0 0 0 0 0 0 0 0 0 0 0 0 0 0 0 0 0 0 0 0 0 0 0 0 0 0 0 0 0 0 0 0 0 0 0 0 0 0 0 0
0 1 0 0 5 0 0 0 0 0 0 0 0 0 0 0 0 0 0 0 0 0 0 0 0 0 0 0 0 0 1 1 2 1 1 0 0 0 0 0 0 0 0 0
0 0 0 0 0 0 0 0 0 0 0 0 0 0 0 0 0 0 0 0 0 0 0 0 0 0 0 0 0 0 0 0 2 1 1 1 1 0 0 0 1 0 0 0
0 1 0 0 0 0 0 0 0 0 0 0 0 0 0 0 0 0 0 0 0 0 0 0 0 0 0 0 0 0 0 0 0 2 2 1 0 0 1 1 0 0 0 0
0 0 0 0 0 0 0 0 0 0 0 0 0 0 0 0 0 0 0 0 0 0 0 0 0 0 0 0 0 0 0 0 0 0 1 2 3 2 0 0 0 0 0 0
0 0 0 0 0 0 0 0 0 0 0 0 0 0 0 0 0 0 0 0 0 0 0 0 0 0 0 0 0 0 0 0 0 0 0 0 0 0 1 0 0 1 0 0
0 0 0 0 0 0 0 0 0 0 0 0 0 0 0 0 0 0 0 0 0 0 0 0 0 0 0 0 0 0 0 0 0 0 0 0 0 1 1 0 1 1 0 0
0 0 0 0 0 0 0 0 0 0 0 0 0 0 0 0 0 0 0 0 0 0 0 0 0 0 0 0 0 0 0 0 0 0 0 0 0 1 2 3 0 0 0 0
0 0 0 0 0 0 0 0 0 0 0 0 0 0 0 0 0 0 0 0 0 0 0 0 0 0 0 0 0 0 0 0 0 0 0 0 0 0 0 1 1 1 0 0
0 0 0 0 0 0 0 0 0 0 0 0 0 0 0 0 0 0 0 0 0 0 0 0 0 0 0 0 0 0 0 0 0 0 0 0 0 0 0 0 0 0 0 1
0 0 0 0 0 0 0 0 0 0 0 0 0 0 0 0 0 0 0 0 0 0 0 0 0 0 0 0 0 0 0 0 0 0 0 0 0 0 0 0 0 0 0 0
0 0 0 0 0 0 0 0 0 0 0 0 0 0 0 0 0 0 0 0 0 0 0 0 0 0 0 0 0 0 0 0 0 0 0 0 0 0 0 0 0 0 0 0
0 0 0 0 0 0 0 0 0 0 0 0 0 0 0 0 0 0 0 0 0 0 0 0 0 0 0 0 0 0 0 0 0 0 0 0 0 0 0 0 0 0 0 0
0 0 0 0 0 0 0 0 0 0 0 0 0 0 0 0 0 0 0 0 0 0 0 0 0 0 0 0 0 0 0 0 0 0 0 0 0 0 0 0 0 0 0 0
0 0 0 0 0 0 0 0 0 0 0 0 0 0 0 0 0 0 0 0 0 0 0 0 0 0 0 0 0 0 0 0 0 0 0 0 0 0 0 0 0 0 0 0
0 0 0 0 0 0 0 0 0 0 0 0 0 0 0 0 0 0 0 0 0 0 0 0 0 0 0 0 0 0 0 0 0 0 0 0 0 0 0 0 0 0 0 0
0 0 0 0 0 0 0 0 0 0 0 0 0 0 0 0 0 0 0 0 0 0 0 0 0 0 0 0 0 0 0 0 0 0 0 0 0 0 0 0 0 0 0 0
0 0 0 0 0 0 0 0 0 0 0 0 0 0 0 0 0 0 0 0 0 0 0 0 0 0 0 0 0 0 0 0 0 0 0 0 0 0 0 0 0 0 0 0
0 0 0 0 0 0 0 0 0 0 0 0 0 0 0 0 0 0 0 0 0 0 0 0 0 0 0 0 0 0 0 0 0 0 0 0 0 0 0 0 0 0 0 0
0 0 0 0 0 0 0 0 0 0 0 0 0 0 0 0 0 0 0 0 0 0 0 0 0 0 0 0 0 0 0 0 0 0 0 0 0 0 0 0 0 0 0 0
0 0 0 0 0 0 0 0 0 0 0 0 0 0 0 0 0 0 0 0 0 0 0 0 0 0 0 0 0 0 0 0 0 0 0 0 0 0 0 0 0 0 0 0
0 0 0 0 0 0 0 0 0 0 0 0 0 0 0 0 0 0 0 0 0 0 0 0 0 0 0 0 0 0 0 0 0 0 0 0 0 0 0 0 0 0 0 0
0 0 0 0 0 0 0 0 0 0 0 0 0 0 0 0 0 0 0 0 0 0 0 0 0 0 0 0 0 0 0 0 0 0 0 0 0 0 0 0 0 0 0 0
0 0 0 0 0 0 0 0 0 0 0 0 0 0 0 0 0 0 0 0 0 0 0 0 0 0 0 0 0 0 0 0 0 0 0 0 0 0 0 0 0 0 0 0
0 0 0 0 0 0 0 0 0 0 0 0 0 0 0 0 0 0 0 0 0 0 0 0 0 0 0 0 0 0 0 0 0 0 0 0 0 0 0 0 0 0 0 0
CIN
0 0 0 0 0 0 0 0 0 0 0 0 0 0 0 0 0 0 0 0 0 0 0 0 0 -1 0 0 -1 0 0 0 0 0 0 0 0 0 0 0 0 0 0 0
0 0 0 0 0 0 0 0 0 0 0 0 0 0 0 0 0 0 0 0 0 0 0 0 0 0 0 0 0 0 0 0 0 0 0 0 0 0 0 0 0 0 0 0
0 0 0 0 -10 0 0 0 0 0 0 0 0 0 0 0 0 0 0 0 0 0 0 0 0 0 0 0 0 -1 0 0 0 0 0 0 0 0 0 0 0 0 0 0
0 0 0 0 0 0 0 0 0 0 0 0 0 0 0 0 0 0 0 0 0 0 0 0 0 0 0 0 0 0 0 0 0 0 0 -1 0 0 0 -3 0 0 0 0
0 0 -1 0 0 0 0 0 0 0 0 0 0 0 0 0 0 0 0 0 0 0 0 0 0 0 0 0 0 0 0 0 0 0 0 0 0 0 -1 -2 0 0 0 0
0 0 0 0 0 0 0 0 0 0 0 0 0 0 0 0 0 0 0 0 0 0 0 0 0 0 0 0 0 0 0 0 0 0 0 0 0 0 0 0 0 0 0 0
0 0 0 0 0 0 0 0 0 0 0 0 0 0 0 0 0 0 0 0 0 0 0 0 0 0 0 0 0 0 0 0 0 0 0 0 0 0 -1 -1 0 0 0 0
0 0 0 0 0 0 0 0 0 0 0 0 0 0 0 0 0 0 0 0 0 0 0 0 0 0 0 0 0 0 0 0 0 0 0 0 0 0 0 0 0 -1 0 0
0 0 0 0 0 0 0 0 0 0 0 0 0 0 0 0 0 0 0 0 0 0 0 0 0 0 0 0 0 0 0 0 0 0 0 0 0 0 0 0 0 0 0 0
0 0 0 0 0 0 0 0 0 0 0 0 0 0 0 0 0 0 0 0 0 0 0 0 0 0 0 0 0 0 0 0 0 0 0 0 0 0 0 0 0 0 0 0
0 0 0 0 0 0 0 0 0 0 0 0 0 0 0 0 0 0 0 0 0 0 0 0 0 0 0 0 0 0 0 0 0 0 0 0 0 0 0 0 0 0 0 0
0 0 0 0 0 0 0 0 0 0 0 0 0 0 0 0 0 0 0 0 0 0 0 0 0 0 0 0 0 0 0 0 0 0 0 0 0 0 0 0 0 0 0 0
0 0 0 0 0 0 0 0 0 0 0 0 0 0 0 0 0 0 0 0 0 0 0 0 0 0 0 0 0 0 0 0 0 0 0 0 0 0 0 0 0 0 0 0
0 0 0 0 0 0 0 0 0 0 0 0 0 0 0 0 0 0 0 0 0 0 0 0 0 0 0 0 0 0 0 0 0 0 0 0 0 0 0 0 0 0 0 0
0 0 0 0 0 0 0 0 0 0 0 0 0 0 0 0 0 0 0 0 0 0 0 0 0 0 0 0 0 0 0 0 0 0 0 0 0 0 0 0 0 0 0 0
0 0 0 0 0 0 0 0 0 0 0 0 0 0 0 0 0 0 0 0 0 0 0 0 0 0 0 0 0 0 0 0 0 0 0 0 0 0 0 0 0 0 0 0
0 0 0 0 0 0 0 0 0 0 0 0 0 0 0 0 0 0 0 0 0 0 0 0 0 0 0 0 0 0 0 0 0 0 0 0 0 0 0 0 0 0 0 0
0 0 0 0 0 0 0 0 0 0 0 0 0 0 0 0 0 0 0 0 0 0 0 0 0 0 0 0 0 0 0 0 0 0 0 0 0 0 0 0 0 0 0 0
0 0 0 0 0 0 0 0 0 0 0 0 0 0 0 0 0 0 0 0 0 0 0 0 0 0 0 0 0 0 0 0 0 0 0 0 0 0 0 0 0 0 0 0
0 0 0 0 0 0 0 0 0 0 0 0 0 0 0 0 0 0 0 0 0 0 0 0 0 0 0 0 0 0 0 0 0 0 0 0 0 0 0 0 0 0 0 0
0 0 0 0 0 0 0 0 0 0 0 0 0 0 0 0 0 0 0 0 0 0 0 0 0 0 0 0 0 0 0 0 0 0 0 0 0 0 0 0 0 0 0 0
0 0 0 -2 0 0 0 0 0 0 0 0 0 0 0 0 0 0 0 0 0 0 0 0 0 0 0 0 0 0 0 0 0 0 0 0 0 0 0 0 0 0 0 0
0 0 0 0 0 0 0 0 0 0 0 0 0 0 0 0 0 0 0 0 0 0 0 0 0 0 0 0 0 0 0 0 0 0 0 0 0 0 0 0 0 0 0 0
0 0 0 0 0 0 0 0 0 0 0 0 0 0 0 0 0 0 0 0 0 0 0 0 0 0 0 0 0 0 0 0 0 0 0 0 0 0 0 0 0 0 0 0
0 0 0 0 0 0 0 0 0 0 0 0 0 0 0 0 0 0 0 0 0 0 0 0 0 0 0 0 0 0 0 0 0 0 0 0 0 0 0 0 0 0 0 0
0 0 0 0 0 0 0 0 0 0 0 0 0 0 0 0 0 0 0 0 0 0 0 0 0 0 0 0 0 0 0 0 0 0 0 0 0 0 0 0 0 0 0 0
Wind_Speed
23 23 26 19 22 20 21 18 17 17 19 23 23 25 26 24 23 27 27 27 25 25 25 25 23 17 15 16 15 15 17 18 17 18 20 22 24 22 22 22 22 22 22 22
23 25 23 17 15 16 19 21 23 18 20 24 22 23 20 21 23 25 26 26 27 27 27 26 27 25 23 23 22 22 22 21 20 21 22 24 24 24 23 22 22 21 21 21
19 19 21 22 21 18 19 21 19 21 20 20 21 19 17 14 16 17 17 18 20 21 23 25 27 28 28 27 27 26 25 24 22 21 23 23 25 25 25 24 23 22 21 21
16 16 15 14 18 19 20 18 18 18 19 23 19 22 17 13 16 19 19 19 19 21 21 22 22 23 25 26 27 27 26 25 23 22 23 24 26 27 25 25 24 23 22 22
17 12 11 15 19 17 17 13 14 16 18 17 20 20 17 17 18 16 16 17 18 19 19 19 20 22 23 24 24 24 25 25 23 22 23 26 27 29 29 28 27 27 25 24
11 11 13 13 11 10 7 10 12 16 18 21 20 20 18 18 14 13 15 16 17 17 17 19 21 23 25 25 25 25 24 25 23 22 23 26 29 30 31 30 29 29 28 27
16 14 13 12 11 13 15 16 21 24 24 24 19 20 17 12 8 11 13 15 16 17 19 22 24 26 27 27 28 28 28 28 26 25 25 26 28 30 31 31 31 31 31 31
21 22 18 19 17 17 16 18 22 26 24 20 18 22 18 11 9 13 15 15 16 20 23 25 27 29 29 30 30 30 31 32 31 30 31 31 31 31 32 33 33 34 34 34
18 20 16 15 16 17 19 20 18 18 19 22 21 19 16 14 14 15 15 16 20 25 27 29 30 31 32 33 34 35 36 36 35 35 35 36 35 35 36 36 35 35 35 34
16 19 16 15 16 15 17 15 20 21 24 26 22 22 21 14 14 16 17 20 24 27 30 31 32 33 34 35 36 37 38 39 39 39 38 39 39 38 38 38 38 38 38 37
13 16 18 15 19 18 18 21 20 19 21 26 28 27 18 15 14 17 21 24 27 31 34 34 34 35 35 36 37 38 39 41 41 41 41 41 41 41 40 40 40 39 39 38
16 16 17 18 17 18 20 21 22 25 26 24 26 30 17 11 12 18 23 25 31 33 34 34 34 33 33 35 37 38 39 39 39 40 40 41 41 40 40 40 40 40 40 39
14 19 21 22 23 21 23 22 21 20 21 26 28 30 15 12 14 17 23 27 31 32 32 31 31 31 32 34 36 38 39 39 39 40 40 41 41 40 40 39 39 39 39 38
14 19 23 25 23 18 22 20 18 19 25 25 24 21 15 11 11 12 22 27 28 28 29 30 29 31 32 34 37 41 42 41 40 41 42 43 42 42 42 42 42 41 39 39
16 21 19 20 19 20 21 18 16 17 17 20 18 16 16 10 12 19 22 22 25 28 28 27 28 31 33 37 42 45 43 42 43 45 45 46 46 45 43 42 41 41 40 40
17 18 17 20 22 23 24 24 20 17 18 22 15 25 12 8 9 13 14 17 23 25 26 26 28 31 37 42 46 44 44 45 44 47 48 48 47 47 46 44 43 42 41 41
13 13 15 21 21 23 30 22 17 10 9 6 12 9 10 15 14 15 15 16 18 20 23 25 27 32 37 42 41 42 45 46 47 48 48 47 47 47 46 45 45 44 43 41
10 11 17 19 18 24 19 15 14 11 11 10 12 13 13 18 17 14 14 16 15 18 22 25 26 31 36 36 38 41 44 46 47 48 48 47 47 48 47 46 45 45 43 42
16 14 18 20 21 32 29 15 14 16 22 10 12 13 14 16 17 18 15 12 14 19 21 24 26 29 33 35 37 40 42 44 46 48 48 47 46 48 48 48 47 43 43 43
17 18 18 19 25 28 21 14 11 15 27 15 12 13 12 11 21 22 13 15 17 19 21 26 26 29 31 33 34 39 41 43 45 46 46 44 44 46 46 45 44 42 41 43
17 19 22 23 30 31 19 10 7 20 27 16 11 11 10 14 17 19 19 21 19 23 25 27 28 31 31 32 34 38 40 42 41 40 42 41 41 42 41 42 41 41 40 41
17 18 21 23 28 36 10 9 19 20 17 12 11 13 16 17 17 17 21 23 23 25 27 29 33 34 33 34 37 40 42 41 40 40 41 41 42 43 42 41 40 39 39 41
23 20 22 22 25 22 7 15 12 15 14 15 16 17 19 21 20 21 23 25 26 29 31 34 36 39 39 37 37 41 42 41 42 42 42 42 45 44 42 42 39 40 40 39
26 21 24 24 26 22 18 16 18 18 18 19 20 22 23 24 24 24 25 28 31 33 35 37 40 43 43 41 39 40 41 41 42 43 42 43 45 44 43 40 40 40 38 38
27 19 25 31 29 24 22 21 21 21 21 23 25 25 27 28 29 28 29 29 32 35 38 40 42 44 44 43 43 42 42 42 43 43 43 44 45 45 45 43 43 40 36 34
25 26 27 31 24 24 28 21 18 19 20 22 25 28 28 28 29 30 31 32 35 39 41 43 44 44 45 45 44 43 42 42 43 44 45 46 47 45 45 46 49 39 34 32
Wind_Direction
230 233 225 216 236 235 231 238 244 257 267 265 270 277 280 289 290 286 288 290 294 295 297 295 298 307 306 306 307 309 307 307 311 313 313 313 312 317 318 318 320 323 326 327
232 231 233 231 245 235 241 241 251 267 269 269 279 285 293 295 295 296 295 294 293 294 296 298 296 300 302 301 302 302 303 305 307 309 310 313 317 317 317 318 317 317 320 323
223 235 237 237 240 236 247 247 253 266 270 276 278 282 294 310 318 321 324 320 316 314 311 306 302 299 301 301 300 301 302 304 306 308 311 312 315 316 315 315 315 313 314 316
235 241 229 232 232 242 246 261 262 264 266 268 282 270 287 301 314 318 318 318 322 322 326 327 324 322 315 312 308 304 304 305 306 306 306 307 308 310 312 313 314 313 311 310
220 234 236 240 248 262 252 267 268 271 270 271 278 277 282 292 302 317 328 331 331 336 338 342 346 341 338 338 330 324 316 311 310 308 306 305 306 307 310 311 309 309 309 307
230 259 257 254 271 268 259 275 281 278 275 271 277 279 278 290 301 316 330 336 343 350 352 349 348 346 345 345 343 339 333 326 324 317 311 306 305 307 309 309 308 309 309 308
248 261 265 269 271 274 272 268 266 266 268 272 281 282 289 296 306 321 325 333 339 345 346 343 339 338 338 337 337 336 335 331 330 325 318 313 309 308 308 308 308 308 308 307
246 245 264 273 272 272 274 274 268 265 267 274 282 278 282 292 299 311 319 327 336 334 335 334 334 333 332 332 332 332 331 328 326 323 319 316 314 312 310 309 307 307 307 308
247 253 274 279 281 278 272 272 279 278 282 278 283 289 288 281 285 300 312 320 323 325 328 328 330 330 330 329 328 327 325 324 323 320 318 315 313 311 309 309 309 308 308 308
270 262 277 285 290 297 285 284 276 279 276 277 284 284 286 266 273 293 304 314 319 323 325 327 330 329 327 326 325 325 324 322 321 319 318 316 314 312 310 308 307 306 306 307
281 283 273 284 279 277 283 280 288 291 289 283 284 287 290 270 270 287 301 313 321 323 324 323 325 327 328 329 328 327 326 324 323 321 320 318 315 313 311 308 307 305 304 304
280 286 279 280 290 289 285 281 281 282 284 289 290 289 303 282 277 298 309 316 319 323 325 326 329 331 333 332 332 331 330 329 328 325 323 321 319 317 315 313 310 308 305 303
280 280 277 281 284 287 280 280 283 292 294 286 288 295 308 297 290 303 313 319 324 329 332 334 337 339 338 338 336 335 332 330 328 327 325 323 321 319 317 316 314 312 310 307
288 283 280 277 286 293 282 281 283 287 289 294 293 303 310 310 304 311 325 327 332 335 336 338 340 340 342 341 339 335 332 331 330 328 326 323 321 319 316 315 313 312 311 308
287 283 288 295 296 296 292 286 280 279 290 296 314 306 311 322 321 325 330 335 335 334 336 338 338 337 337 336 334 334 333 331 328 325 322 320 319 319 318 316 314 312 310 308
284 291 290 288 286 288 285 280 282 284 287 293 309 308 329 297 322 338 341 340 337 337 338 338 337 337 335 334 335 335 333 331 329 325 321 319 318 317 315 314 313 313 312 310
286 290 291 286 290 290 283 210 205 220 218 231 295 320 334 344 346 339 339 341 342 342 341 338 337 336 336 335 337 336 335 333 330 327 325 322 320 317 316 314 313 311 311 310
286 288 292 292 297 285 299 315 306 255 245 253 287 310 327 328 332 337 335 337 343 345 343 340 338 336 337 338 338 336 336 334 332 330 328 326 323 320 318 315 313 312 310 308
283 283 289 287 286 287 289 298 296 298 301 275 258 289 301 318 328 327 332 339 344 344 345 343 339 338 337 337 337 336 336 335 333 331 329 329 326 322 320 316 314 312 310 308
276 281 279 288 286 286 301 305 314 316 299 306 294 298 304 319 317 328 340 339 337 339 340 339 339 336 335 335 337 336 335 335 333 332 331 331 330 325 322 320 318 315 311 307
260 269 264 277 283 290 294 311 317 293 308 327 324 318 314 311 317 327 331 333 333 331 333 336 336 333 331 333 335 333 333 332 333 332 332 332 331 329 325 322 319 316 314 310
257 257 266 273 281 286 289 276 279 299 314 321 325 323 317 317 318 319 323 326 329 328 330 331 330 329 330 331 331 329 328 329 330 330 329 329 329 328 327 323 320 318 315 312
270 269 270 261 281 297 255 297 276 308 302 302 308 312 311 314 314 317 320 323 325 326 327 328 327 327 328 328 328 326 325 327 327 327 326 326 325 325 325 323 321 317 315 313
270 269 278 280 278 277 281 276 295 287 294 301 304 307 310 309 312 314 317 320 322 324 325 326 326 325 324 326 326 324 325 326 325 324 323 324 323 323 322 321 318 314 313 312
272 256 266 279 282 295 288 271 277 278 288 292 296 299 302 305 308 312 316 320 321 322 324 324 324 324 324 325 324 324 325 325 323 322 322 321 322 322 321 318 314 312 310 309
261 268 259 275 281 281 288 291 283 278 281 285 288 297 299 301 306 311 315 319 321 321 322 323 323 324 324 324 323 324 325 324 322 321 321 321 320 321 320 318 313 311 307 306